ARIANE 5 R/B (43176 NORAD) Tracking and Keplerian Element Data

This shows tracking and keplerian element data for the satellite.

Feedback or suggestion? Click here.




ElementValue
Catalog43176
NameARIANE 5 R/B
Epoch Orbit49
Epoch Day51.69211952
Epoch Year2018
RAAN226.6393
Inclination20.8935
Eccentricity0.7637766
Argument of Perigee243.9023
Mean Anonmoly22.5966
Mean Motion1.86822266
Decay Rate4.828E-05
L11 43176U 18012C 18051.69211952 .00004828 00000-0 57907-3 0 9996
L22 43176 20.8935 226.6393 7637766 243.9023 22.5966 1.86822266 490



Live tracking and technical data element details for ARIANE 5 R/B (NORAD 43176). ARIANE 5 R/B can be tracked NOW for your location showing map with azimuth and elevation plus other details from your city location.







IsCatalogInMostPopularTable: catalog: 43176, numindb: 517
Update: records affected: 1



GetName: 43176 ARIANE 5 R/B

Hit Count: updated at: Thu, 22 May 2025 04:42:02 GMT